#timestamp,LO_Frequency,Hit,StdDev 
1692190815.4,286046995.2,N
1692190835.2,286046995.5,N
1692190855.0,286046995.2,N
1692190855.9,286046995.2,N
1692190875.8,286046997.1,N
1692190895.6,286046996.8,N
1692190915.5,286046994.9,N
1692190935.3,286046997.6,N
1692190955.1,286046997.7,N
1692190975.9,286046998.0,N
1692190995.7,286046998.0,N
1692191015.5,286046995.6,N
1692191035.8,286046994.3,Y
1692191055.6,286047002.3,P
1692191075.5,286047006.2,N
1692191095.3,286047003.1,N
1692191115.1,286047007.5,N
1692191135.9,286047007.2,N
1692191155.7,286047010.4,N
1692191175.5,286047007.0,N
1692191195.4,286047002.9,N
1692191215.2,286047003.5,N
1692191235.1,286047004.3,N
1692191236.0,286047004.3,N
1692191255.8,286047004.2,N
1692191275.6,286047003.9,N
1692191295.5,286047005.1,N
1692191315.3,286047007.5,N
1692191335.1,286047004.6,N
1692191355.9,286047005.6,N
1692191375.7,286047001.9,N
1692191395.6,286046998.7,N
1692191415.4,286046996.6,N
1692191435.2,286046996.1,N
1692191455.1,286046996.7,N
1692191456.0,286046996.7,N
1692191475.8,286047000.7,N
1692191495.6,286046998.1,N
1692191515.5,286046996.6,N
1692191535.3,286046999.2,N
1692191555.2,286047000.8,N
1692191575.9,286047001.2,N
1692191595.7,286047001.1,N
1692191615.6,286047001.8,N
1692191635.4,286047003.2,N
1692191655.2,286047003.6,N
1692191675.1,286046999.9,N
1692191676.0,286046999.9,N
1692191695.8,286047002.3,N
1692191715.7,286047003.9,N
1692191735.5,286047000.1,N
1692191755.3,286047005.7,N
1692191775.2,286047002.9,N
1692191795.0,286047005.8,N
1692191795.9,286047005.8,N
1692191815.7,286047007.4,N
1692191835.6,286047008.9,N
1692191855.4,286047008.4,N
1692191875.3,286047007.8,N
1692191895.1,286047010.2,N
1692191896.0,286047010.2,N
1692191915.8,286047012.4,N
1692191935.7,286047011.7,N
1692191955.5,286047011.2,N
1692191975.3,286047009.4,N
1692191995.2,286047009.3,N
1692192015.0,286047010.0,N
1692192015.9,286047010.0,N
1692192035.8,286047009.4,N
1692192055.6,286047009.4,N
1692192075.4,286047012.2,Y
1692192095.3,286047004.8,P
1692192115.1,286047004.9,P
1692192135.8,286047008.7,P
1692192155.7,286047009.5,Y
1692192175.5,286047005.5,P
1692192195.4,286047005.3,P
1692192215.2,286047004.7,P
1692192235.0,286047006.1,Y
1692192235.9,286047006.1,P
1692192255.8,286047004.0,P
1692192275.6,286047001.3,N
1692192295.5,286047002.4,N
1692192315.3,286047002.0,N
1692192335.1,286047004.3,N
1692192355.9,286047005.3,Y
1692192375.7,286047003.6,P
1692192395.5,286047005.6,P
1692192415.4,286047005.5,P
1692192435.2,286047005.4,Y
1692192455.1,286047002.5,P
1692192456.0,286047002.5,N
1692192475.8,286047003.9,P
1692192495.6,286047003.0,Y
1692192515.5,286046999.8,P
1692192535.3,286047002.6,N
1692192555.1,286047004.2,N
1692192575.9,286047003.5,N
1692192595.7,286047001.5,N
1692192615.6,286047003.6,N
1692192635.4,286047005.6,Y
1692192655.2,286047002.6,P
1692192675.1,286047004.2,P
1692192676.0,286047004.2,P
1692192695.8,286047003.2,Y
1692192715.7,286047000.3,P
1692192735.5,286047002.0,N
1692192755.3,286047003.6,N
1692192775.2,286047003.3,N
1692192795.9,286047006.8,Y
1692192815.7,286047005.3,P
1692192835.6,286047005.5,P
1692192855.4,286047002.9,N
1692192875.3,286047004.8,Y
1692192895.1,286047003.5,P
1692192896.0,286047003.5,P
1692192915.8,286047004.1,P
1692192935.7,286047004.4,Y
1692192955.5,286047001.1,P
1692192975.3,286047000.5,N
1692192995.2,286047002.4,N
1692193015.0,286047003.5,N
1692193015.9,286047003.5,N
1692193035.8,286047004.7,Y
1692193055.6,286047001.3,P
1692193075.4,286047001.3,N
1692193095.3,286047003.4,P
1692193115.1,286047005.9,Y
1692193135.9,286047002.7,P
1692193155.7,286047002.2,P
1692193175.5,286047002.2,P
1692193195.4,286047001.3,Y
1692193215.2,286046998.8,P
1692193235.0,286046999.1,N
1692193236.0,286046999.1,N
1692193255.8,286046999.2,N
1692193275.6,286047001.1,N
1692193295.5,286046998.9,N
1692193315.3,286046999.5,N
1692193335.1,286046997.7,N
1692193355.9,286046994.9,Y
1692193375.7,286046995.3,P
1692193395.6,286046998.0,N
1692193415.4,286046996.9,N
1692193435.2,286046999.2,N
1692193455.1,286046999.3,N
1692193456.0,286046999.3,N
1692193475.8,286046998.7,N
1692193495.6,286046998.8,N
1692193515.5,286046999.0,N
1692193535.3,286046998.8,N
1692193555.1,286046999.4,N
1692193575.9,286046996.9,N
1692193595.7,286046998.9,N
1692193615.6,286046999.3,N
1692193635.4,286046998.7,N
1692193655.2,286046998.5,N
1692193675.1,286046999.0,N
1692193676.0,286046999.0,N
1692193695.8,286046999.1,N
1692193715.6,286046998.6,N
1692193735.5,286046998.5,N
1692193755.3,286046998.1,N
1692193775.2,286046998.3,N
1692193795.9,286046998.3,N
1692193815.7,286046999.5,N
1692193835.6,286046994.9,Y
1692193855.4,286046985.8,P
1692193875.2,286046986.2,N
1692193895.1,286046987.4,N
1692193896.0,286046987.4,N
1692193915.8,286046988.9,N
1692193935.7,286046988.7,N
1692193955.5,286046992.5,N
1692193975.3,286046994.2,N
1692193995.2,286046992.8,N
1692194015.0,286046992.9,N
1692194015.9,286046992.9,N
1692194035.8,286046994.5,N
1692194055.6,286046994.9,N
1692194075.4,286046997.6,N
1692194095.3,286046989.2,N
1692194115.1,286046988.9,N
1692194135.8,286046991.8,N
1692194155.7,286046993.3,N
1692194175.5,286046998.7,N
1692194195.4,286046997.3,N
1692194215.2,286046992.5,N
1692194235.0,286046993.7,N
1692194235.9,286046993.7,N
1692194255.8,286046994.0,N
1692194275.6,286046993.7,N
1692194295.4,286046994.7,N
1692194315.3,286046990.1,N
1692194335.1,286046991.9,N
1692194355.8,286046995.0,N
1692194375.7,286046994.2,N
1692194395.5,286046995.3,N
